Zurück zum Katalog

STARLINK-6294

AktivKommunikationVLEO
NORAD 57225·PAYLOAD·🇺🇸 United States

Gestartet Jul 7, 2023 von Vandenberg Space Force Base

Loading…

Nächste Überflüge (nächste 24 Stunden)

TLE

AktuellSource: CelesTrak SupGP

Epoche: Sep 15, 2026, 02:40 UTC

1 57225C 23094H   26258.11159722 -.00038545  00000+0 -13959-2 0  2583
2 57225  43.0039  41.3665 0002011 272.8881 329.7844 15.27600052    13

Verfolge STARLINK-6294 in Echtzeit mit AllMySat

Download on the App Store